Regional Weather Roundup
Issued by NWS

Home | Current Version | Previous Version | Text Only | Print | Product List | Glossary On
Versions: 1 2 3 4 5 6 7 8 9 10 11 12 13 14 15 16 17 18 19 20 21 22 23 24 25 26 27 28 29 30 31 32 33 34 35 36 37 38 39 40 41 42 43 44 45 46 47 48 49 50
731
ASUS43 KDMX 070608
RWRIA

WEATHER ROUNDUP FOR IOWA
NATIONAL WEATHER SERVICE DES MOINES IA
1200 AM CST SUN FEB 07 2016

NOTE: "FAIR" INDICATES FEW OR NO CLOUDS BELOW 12,000 FEET WITH NO
SIGNIFICANT WEATHER AND/OR OBSTRUCTIONS TO VISIBILITY.

* - THESE STATIONS ARE NOT NWS STATIONS...THUS NOT UNDER NWS
QUALITY CONTROL.  THEY ALSO DO NOT REPORT WEATHER SUCH
AS PRECIPITATION OR FOG.

IAZ001>003-012>014-020>022-031>034-043>046-070700-
   NORTHWEST IOWA

CITY           SKY/WX    TMP DP  RH WIND       PRES   REMARKS
CARROLL *      CLOUDY    36  28  75 SW18      29.87S WCI  25
CHEROKEE *     CLOUDY    32  28  83 SW7       29.87S WCI  26
DENISON *      MOCLDY    34  27  75 SW9       29.88F WCI  26
LE MARS *      CLOUDY    30  30 100 SW7       29.87F WCI  23
ORANGE CITY *  CLOUDY    30  28  93 S5        29.84F WCI  25
SHELDON *      CLOUDY    32  28  86 SW12      29.80F WCI  23
SIOUX CITY     CLOUDY    28  22  78 CALM      29.88F
6HR MIN TEMP:  28; 6HR MAX TEMP:  37;

SPENCER        MOCLDY    32  26  78 SW18      29.82F WCI  20
6HR MIN TEMP:  32; 6HR MAX TEMP:  35;

STORM LAKE *   CLOUDY    30  28  93 SW17      29.83F WCI  18
$$

IAZ055>058-069>071-079>083-090>094-070700-
   SOUTHWEST IOWA

CITY           SKY/WX    TMP DP  RH WIND       PRES   REMARKS
ATLANTIC *     CLEAR     34  28  80 SW10      29.93S WCI  26
AUDUBON *      CLEAR     34  28  80 SW9       29.92R WCI  26
CLARINDA *     CLEAR     37  30  75 S14G20    29.96F WCI  29
COUNCIL BLFS * CLEAR     36  28  75 SW8       29.94R WCI  29
CRESTON *      CLEAR     36  28  75 SW14      29.94F WCI  27
HARLAN  *      CLEAR     32  27  80 SW8       29.95S WCI  25
LAMONI         CLOUDY    36  28  73 S15       29.97F WCI  27
6HR MIN TEMP:  35; 6HR MAX TEMP:  38;

RED OAK *      CLEAR     36  30  80 MISG      29.96R
SHENANDOAH *   CLEAR     37  32  81 SW10      29.95S WCI  30
$$

IAZ047>049-059>061-072>074-084-070700-
   CENTRAL IOWA

CITY           SKY/WX    TMP DP  RH WIND       PRES   REMARKS
AMES           CLOUDY    35  28  75 SW16      29.89F WCI  25
6HR MIN TEMP:  33; 6HR MAX TEMP:  37;

ANKENY *       CLEAR     39  30  70 SW12G17   29.91F WCI  32
BOONE *        CLEAR     36  28  75 SW13      29.88R WCI  27
CHARITON *     PTCLDY    36  30  80 S17       29.95F WCI  25
DES MOINES     CLOUDY    40  27  59 SW16      29.91F WCI  31
6HR MIN TEMP:  35; 6HR MAX TEMP:  40;

GRINNELL*      PTCLDY    36  30  80 S16       29.91F WCI  26
KNOXVILLE *    CLEAR     37  28  70 S18       29.91F WCI  27
MARSHALLTOWN   CLOUDY    37  29  72 SW17      29.88F WCI  27
6HR MIN TEMP:  30; 6HR MAX TEMP:  37;

NEWTON *       CLEAR     36  32  87 S12       29.91F WCI  27
PELLA *        PTCLDY    37  30  73 SW14G21   29.94F WCI  29
$$

IAZ004>006-015-016-023>025-035-036-070700-
   NORTH CENTRAL IOWA

CITY           SKY/WX    TMP DP  RH WIND       PRES   REMARKS
ALGONA *       CLOUDY    32  28  86 SW13      29.82F WCI  22
CLARION *      MOCLDY    30  27  86 SW14      29.87F WCI  20
ESTHERVILLE    CLOUDY    32  27  81 SW15      29.78F WCI  22
6HR MIN TEMP:  31; 6HR MAX TEMP:  33;

FORT DODGE *   CLOUDY    34  27  75 S10       29.87F WCI  26
MASON CITY     CLOUDY    34  28  79 SW20G26   29.84F WCI  23
6HR MIN TEMP:  28; 6HR MAX TEMP:  34;

FOREST CITY *  CLOUDY    32  30  93 SW16      29.82F WCI  21
WEBSTER CITY * PTCLDY    34  28  80 SW14      29.86F WCI  24
IOWA FALLS *     N/A     34  30  86 SW13      29.89R WCI  25
$$

IAZ007>011-017>019-026>030-037>042-050>054-066-070700-
   NORTHEAST IOWA

CITY           SKY/WX    TMP DP  RH WIND       PRES   REMARKS
CEDAR RAPIDS   CLOUDY    35  31  85 S16       29.93F WCI  25
6HR MIN TEMP:  29; 6HR MAX TEMP:  35;

CHARLES CITY * CLOUDY    34  34 100 SW13      29.87S WCI  25
CLINTON *      CLOUDY    34  31  88 S9        30.01F WCI  27
DECORAH *      CLOUDY    34  32  93 S8G18     29.84F WCI  27
DUBUQUE        CLOUDY    33  30  88 S14       29.94F WCI  23
6HR MIN TEMP:  25; 6HR MAX TEMP:  33;

MONTICELLO *   PTCLDY    36  30  80 S12       29.94F WCI  27
OELWEIN *      CLOUDY    34  32  93 S15       29.89F WCI  24
WATERLOO       CLOUDY    37  29  72 S15       29.88F WCI  28
6HR MIN TEMP:  28; 6HR MAX TEMP:  37;

$$

IAZ064-065-067-068-078-070700-
   EAST CENTRAL IOWA

CITY           SKY/WX    TMP DP  RH WIND       PRES   REMARKS
DAVENPORT      MOCLDY    38  29  70 SW10      30.01F WCI  31
6HR MIN TEMP:  29; 6HR MAX TEMP:  38;

IOWA CITY      PTCLDY    35  30  82 S9        29.99F WCI  28
6HR MIN TEMP:  28; 6HR MAX TEMP:  36;

MT. PLEASANT * MOCLDY    38  32  80 S10       30.03F WCI  30
MUSCATINE *    CLEAR     37  30  75 S12       30.02F WCI  30
QUAD CITIES    MOCLDY    39  29  67 SW9       30.01F WCI  33
6HR MIN TEMP:  28; 6HR MAX TEMP:  39;

$$

IAZ062-063-075>077-085>089-095>099-070700-
   SOUTHEAST IOWA

CITY           SKY/WX    TMP DP  RH WIND       PRES   REMARKS
BURLINGTON     PTCLDY    35  30  82 S9        30.04F WCI  28
6HR MIN TEMP:  33; 6HR MAX TEMP:  41;

FAIRFIELD *    MIX PCPN  37  28  70 S14G20    30.00F WCI  29
FORT MADISON * CLEAR     37  30  75 S9        30.06S WCI  31
KEOKUK *       CLEAR     36  30  80 SW10      30.06S WCI  28
OSKALOOSA *      N/A     36  30  79 SW14      29.97F WCI  27
CENTERVILLE *    N/A    N/A N/A N/A MISG        N/A
OTTUMWA        CLOUDY    37  30  75 S14       29.98F WCI  28
6HR MIN TEMP:  32; 6HR MAX TEMP:  37;

WASHINGTON *   CLEAR     36  32  87 S13       30.01F WCI  27
$$

ABBREVIATIONS USED IN REMARKS
   TC - TEMPERATURES IN CELSIUS
  WCI - WIND CHILL INDEX
   HX - HEAT INDEX
  VSB - VISIBILITY
$$





USA.gov is the U.S. government's official web portal to all federal, state and local government web resources and services.